| time (UTC) | temp F | wind direction | speed MPH | gust MPH | rain 1hr in | rain 24hr in | rain mn in | humidity % | barometer mb |
| 20260906225045 | 73 | 237 | 1.0 | 4.0 | 0.03 | 0.04 | 0.04 | 87 | 1013.4 |
| 20260906224558 | 73 | 188 | 0.0 | 2.0 | 0.03 | 0.04 | 0.04 | 87 | 1013.4 |
| 20260906224048 | 73 | 210 | 0.0 | 3.0 | 0.03 | 0.04 | 0.04 | 87 | 1013.3 |
| 20260906223548 | 74 | 218 | 1.0 | 4.0 | 0.03 | 0.04 | 0.04 | 86 | 1013.2 |
| 20260906223053 | 74 | 0 | 0.0 | 4.0 | 0.03 | 0.04 | 0.04 | 86 | 1013.2 |
| 20260906222544 | 74 | 231 | 0.0 | 3.0 | 0.03 | 0.04 | 0.04 | 87 | 1013.3 |
| 20260906222047 | 75 | 0 | 0.0 | 4.0 | 0.03 | 0.04 | 0.04 | 85 | 1013.6 |
| 20260906221605 | 75 | 0 | 0.0 | 4.0 | 0.03 | 0.04 | 0.04 | 84 | 1013.4 |
| 20260906221045 | 76 | 225 | 0.0 | 6.0 | 0.03 | 0.04 | 0.04 | 83 | 1013.4 |
| 20260906220547 | 78 | 0 | 1.0 | 7.0 | 0.02 | 0.03 | 0.03 | 80 | 1013.6 |
| 20260906220059 | 79 | 0 | 0.0 | 7.0 | 0.00 | 0.01 | 0.01 | 76 | 1013.5 |
| 20260906215548 | 80 | 186 | 1.0 | 4.0 | 0.00 | 0.01 | 0.01 | 76 | 1013.5 |
| 20260906215045 | 80 | 0 | 0.0 | 2.0 | 0.00 | 0.01 | 0.01 | 78 | 1013.5 |
| 20260906214554 | 81 | 0 | 0.0 | 2.0 | 0.00 | 0.01 | 0.01 | 75 | 1013.4 |
| 20260906214044 | 81 | 0 | 0.0 | 2.0 | 0.00 | 0.01 | 0.01 | 75 | 1013.5 |
| 20260906213545 | 81 | 0 | 0.0 | 2.0 | 0.00 | 0.01 | 0.01 | 75 | 1013.4 |
| 20260906213108 | 81 | 0 | 0.0 | 1.0 | 0.00 | 0.01 | 0.01 | 75 | 1013.5 |
| 20260906212544 | 81 | 0 | 0.0 | 1.0 | 0.00 | 0.01 | 0.01 | 76 | 1013.6 |
| 20260906212044 | 82 | 239 | 0.0 | 1.0 | 0.00 | 0.01 | 0.01 | 74 | 1013.5 |
| 20260906211554 | 82 | 0 | 0.0 | 1.0 | 0.00 | 0.01 | 0.01 | 74 | 1013.4 |
| 20260906211045 | 82 | 0 | 0.0 | 1.0 | 0.00 | 0.01 | 0.01 | 73 | 1013.4 |
| 20260906210545 | 82 | 0 | 0.0 | 1.0 | 0.00 | 0.01 | 0.01 | 75 | 1013.4 |
| 20260906205544 | 82 | 0 | 1.0 | 3.0 | 0.00 | 0.01 | 0.01 | 71 | 1013.3 |
| 20260906205048 | 82 | 51 | 0.0 | 2.0 | 0.00 | 0.01 | 0.01 | 71 | 1013.2 |
| 20260906204606 | 82 | 0 | 0.0 | 3.0 | 0.00 | 0.01 | 0.01 | 71 | 1013.2 |
| 20260906204045 | 82 | 0 | 0.0 | 3.0 | 0.00 | 0.01 | 0.01 | 72 | 1013.0 |
| 20260906203545 | 82 | 329 | 0.0 | 4.0 | 0.00 | 0.01 | 0.01 | 70 | 1013.0 |
| 20260906203102 | 82 | 55 | 1.0 | 4.0 | 0.00 | 0.01 | 0.01 | 71 | 1012.9 |
| 20260906202544 | 82 | 182 | 2.0 | 4.0 | 0.00 | 0.01 | 0.01 | 72 | 1013.0 |
| 20260906202044 | 82 | 0 | 2.0 | 4.0 | 0.00 | 0.01 | 0.01 | 71 | 1013.0 |
| 20260906201602 | 82 | 0 | 0.0 | 4.0 | 0.00 | 0.01 | 0.01 | 72 | 1012.9 |
| 20260906201044 | 82 | 0 | 0.0 | 4.0 | 0.00 | 0.01 | 0.01 | 72 | 1013.0 |
| 20260906200544 | 83 | 80 | 0.0 | 3.0 | 0.00 | 0.01 | 0.01 | 70 | 1013.0 |
| 20260906200111 | 82 | 0 | 0.0 | 3.0 | 0.00 | 0.01 | 0.01 | 69 | 1013.2 |
| 20260906195544 | 83 | 0 | 0.0 | 7.0 | 0.00 | 0.01 | 0.01 | 70 | 1013.2 |
| 20260906195045 | 83 | 271 | 1.0 | 7.0 | 0.00 | 0.01 | 0.01 | 70 | 1013.2 |
| 20260906194557 | 83 | 333 | 2.0 | 7.0 | 0.00 | 0.01 | 0.01 | 68 | 1013.3 |
| 20260906194046 | 83 | 238 | 2.0 | 4.0 | 0.00 | 0.01 | 0.01 | 69 | 1013.3 |
| 20260906193545 | 83 | 162 | 0.0 | 2.0 | 0.00 | 0.01 | 0.01 | 67 | 1013.4 |
| 20260906193057 | 83 | 0 | 0.0 | 3.0 | 0.00 | 0.01 | 0.01 | 71 | 1013.5 |
| 20260906192545 | 83 | 169 | 1.0 | 5.0 | 0.00 | 0.01 | 0.01 | 71 | 1013.6 |
| 20260906192045 | 82 | 77 | 2.0 | 5.0 | 0.00 | 0.01 | 0.01 | 70 | 1013.6 |
| 20260906191605 | 82 | 165 | 1.0 | 5.0 | 0.00 | 0.01 | 0.01 | 70 | 1013.8 |
| 20260906191046 | 82 | 264 | 1.0 | 9.0 | 0.00 | 0.01 | 0.01 | 71 | 1013.7 |
| 20260906190544 | 82 | 215 | 2.0 | 9.0 | 0.00 | 0.01 | 0.01 | 71 | 1013.8 |
| 20260906190114 | 82 | 259 | 4.0 | 9.0 | 0.00 | 0.01 | 0.01 | 72 | 1013.9 |
| 20260906185545 | 83 | 211 | 2.0 | 8.0 | 0.00 | 0.29 | 0.01 | 70 | 1013.9 |
| 20260906185045 | 82 | 219 | 3.0 | 8.0 | 0.00 | 0.29 | 0.01 | 73 | 1014.0 |
| 20260906184558 | 82 | 28 | 3.0 | 8.0 | 0.00 | 0.29 | 0.01 | 72 | 1014.1 |
| 20260906184046 | 81 | 342 | 2.0 | 7.0 | 0.00 | 0.29 | 0.01 | 72 | 1014.1 |
| 20260906183545 | 82 | 273 | 3.0 | 7.0 | 0.00 | 0.29 | 0.01 | 71 | 1014.2 |
| 20260906183059 | 82 | 0 | 1.0 | 4.0 | 0.00 | 0.29 | 0.01 | 76 | 1014.2 |
| 20260906182546 | 81 | 191 | 1.0 | 4.0 | 0.00 | 0.29 | 0.01 | 74 | 1014.3 |
| 20260906182046 | 82 | 23 | 0.0 | 6.0 | 0.00 | 0.29 | 0.01 | 73 | 1014.2 |
| 20260906181610 | 81 | 0 | 2.0 | 6.0 | 0.00 | 0.29 | 0.01 | 74 | 1014.4 |
| 20260906181046 | 81 | 205 | 1.0 | 7.0 | 0.00 | 0.29 | 0.01 | 74 | 1014.3 |
| 20260906180545 | 81 | 299 | 2.0 | 7.0 | 0.00 | 0.29 | 0.01 | 75 | 1014.3 |
| 20260906180111 | 81 | 146 | 2.0 | 7.0 | 0.00 | 0.29 | 0.01 | 76 | 1014.3 |
| 20260906175545 | 81 | 195 | 3.0 | 8.0 | 0.00 | 0.29 | 0.01 | 75 | 1014.5 |
| 20260906175045 | 80 | 344 | 2.0 | 8.0 | 0.00 | 0.29 | 0.01 | 78 | 1014.5 |
| 20260906174611 | 80 | 91 | 2.0 | 6.0 | 0.00 | 0.29 | 0.01 | 78 | 1014.5 |
| 20260906174046 | 78 | 124 | 1.0 | 6.0 | 0.00 | 0.29 | 0.01 | 80 | 1014.5 |
| 20260906173548 | 78 | 278 | 1.0 | 4.0 | 0.00 | 0.29 | 0.01 | 80 | 1014.5 |
| 20260906173054 | 78 | 283 | 0.0 | 4.0 | 0.00 | 0.29 | 0.01 | 82 | 1014.5 |
| 20260906172549 | 77 | 207 | 0.0 | 4.0 | 0.00 | 0.29 | 0.01 | 81 | 1014.7 |
| 20260906172045 | 77 | 223 | 1.0 | 4.0 | 0.00 | 0.29 | 0.01 | 81 | 1014.8 |
| 20260906171604 | 77 | 0 | 0.0 | 2.0 | 0.00 | 0.29 | 0.01 | 81 | 1014.9 |
| 20260906171045 | 77 | 0 | 0.0 | 1.0 | 0.00 | 0.29 | 0.01 | 82 | 1014.9 |
| 20260906170548 | 77 | 0 | 0.0 | 2.0 | 0.00 | 0.29 | 0.01 | 84 | 1014.9 |
| 20260906165544 | 77 | 0 | 0.0 | 3.0 | 0.00 | 0.29 | 0.01 | 82 | 1015.0 |
| 20260906165044 | 77 | 208 | 0.0 | 2.0 | 0.00 | 0.29 | 0.01 | 81 | 1015.1 |
| 20260906164555 | 77 | 170 | 0.0 | 3.0 | 0.00 | 0.29 | 0.01 | 80 | 1015.0 |
| 20260906164044 | 77 | 0 | 0.0 | 3.0 | 0.00 | 0.29 | 0.01 | 80 | 1014.9 |
| 20260906163544 | 77 | 0 | 0.0 | 3.0 | 0.00 | 0.29 | 0.01 | 81 | 1014.9 |
| 20260906163105 | 77 | 0 | 1.0 | 3.0 | 0.00 | 0.29 | 0.01 | 80 | 1014.9 |
| 20260906162545 | 78 | 0 | 0.0 | 2.0 | 0.00 | 0.29 | 0.01 | 81 | 1014.9 |
| 20260906162045 | 78 | 208 | 0.0 | 3.0 | 0.00 | 0.29 | 0.01 | 80 | 1015.0 |
| 20260906161602 | 79 | 243 | 0.0 | 3.0 | 0.00 | 0.29 | 0.01 | 79 | 1015.0 |
| 20260906161048 | 79 | 0 | 0.0 | 2.0 | 0.00 | 0.29 | 0.01 | 78 | 1015.0 |
| 20260906160545 | 80 | 153 | 1.0 | 3.0 | 0.00 | 0.29 | 0.01 | 77 | 1014.8 |
| 20260906160111 | 80 | 144 | 0.0 | 5.0 | 0.00 | 0.29 | 0.01 | 79 | 1014.9 |
| 20260906155546 | 80 | 0 | 1.0 | 5.0 | 0.00 | 0.29 | 0.01 | 78 | 1015.0 |
| 20260906155044 | 80 | 153 | 0.0 | 6.0 | 0.00 | 0.29 | 0.01 | 79 | 1014.9 |
| 20260906154600 | 80 | 284 | 1.0 | 6.0 | 0.00 | 0.29 | 0.01 | 77 | 1015.0 |
| 20260906154045 | 80 | 229 | 2.0 | 4.0 | 0.00 | 0.29 | 0.01 | 78 | 1014.9 |
| 20260906153544 | 79 | 161 | 1.0 | 6.0 | 0.00 | 0.29 | 0.01 | 79 | 1014.7 |
| 20260906153052 | 79 | 240 | 1.0 | 8.0 | 0.00 | 0.29 | 0.01 | 79 | 1015.0 |
| 20260906152546 | 79 | 0 | 3.0 | 10.0 | 0.00 | 0.29 | 0.01 | 78 | 1014.9 |
| 20260906152044 | 79 | 211 | 2.0 | 10.0 | 0.00 | 0.29 | 0.01 | 78 | 1014.8 |
| 20260906151606 | 79 | 187 | 1.0 | 5.0 | 0.00 | 0.29 | 0.01 | 79 | 1015.0 |
| 20260906151045 | 79 | 240 | 1.0 | 5.0 | 0.00 | 0.29 | 0.01 | 81 | 1014.9 |
| 20260906150545 | 78 | 58 | 1.0 | 5.0 | 0.00 | 0.29 | 0.01 | 81 | 1014.9 |
| 20260906150104 | 77 | 0 | 0.0 | 4.0 | 0.00 | 0.29 | 0.01 | 84 | 1014.9 |
| 20260906145544 | 77 | 286 | 0.0 | 3.0 | 0.00 | 0.29 | 0.01 | 83 | 1014.9 |
| 20260906145045 | 77 | 297 | 1.0 | 3.0 | 0.00 | 0.29 | 0.01 | 82 | 1015.0 |
| 20260906144552 | 77 | 309 | 0.0 | 1.0 | 0.00 | 0.29 | 0.01 | 81 | 1015.0 |
| 20260906144044 | 77 | 0 | 0.0 | 1.0 | 0.00 | 0.29 | 0.01 | 83 | 1015.1 |
| 20260906143545 | 77 | 0 | 0.0 | 2.0 | 0.00 | 0.29 | 0.01 | 82 | 1015.0 |
| 20260906143103 | 77 | 153 | 0.0 | 2.0 | 0.00 | 0.29 | 0.01 | 85 | 1014.9 |
| 20260906142544 | 76 | 0 | 0.0 | 2.0 | 0.00 | 0.29 | 0.01 | 83 | 1014.7 |
| 20260906142045 | 76 | 0 | 0.0 | 3.0 | 0.00 | 0.29 | 0.01 | 83 | 1014.7 |
| 20260906141558 | 77 | 54 | 0.0 | 3.0 | 0.00 | 0.29 | 0.01 | 82 | 1014.6 |
| 20260906141045 | 77 | 254 | 0.0 | 1.0 | 0.00 | 0.29 | 0.01 | 82 | 1014.6 |
| 20260906140547 | 77 | 0 | 0.0 | 2.0 | 0.00 | 0.29 | 0.01 | 83 | 1014.6 |
| 20260906140057 | 77 | 0 | 0.0 | 2.0 | 0.00 | 0.29 | 0.01 | 83 | 1014.6 |
| 20260906135544 | 77 | 0 | 0.0 | 7.0 | 0.00 | 0.29 | 0.01 | 84 | 1014.5 |
| 20260906135045 | 77 | 277 | 0.0 | 7.0 | 0.00 | 0.29 | 0.01 | 83 | 1014.5 |
| 20260906134603 | 76 | 0 | 1.0 | 7.0 | 0.00 | 0.29 | 0.01 | 84 | 1014.5 |
| 20260906134045 | 76 | 0 | 0.0 | 4.0 | 0.00 | 0.29 | 0.01 | 84 | 1014.5 |
| 20260906133544 | 76 | 155 | 0.0 | 5.0 | 0.00 | 0.29 | 0.01 | 84 | 1014.6 |
| 20260906133115 | 76 | 169 | 1.0 | 5.0 | 0.00 | 0.29 | 0.01 | 84 | 1014.5 |
| 20260906132545 | 76 | 140 | 1.0 | 4.0 | 0.00 | 0.29 | 0.01 | 83 | 1014.5 |
| 20260906132044 | 76 | 154 | 0.0 | 4.0 | 0.00 | 0.29 | 0.01 | 86 | 1014.5 |
| 20260906131551 | 76 | 180 | 1.0 | 3.0 | 0.00 | 0.29 | 0.01 | 85 | 1014.5 |
| 20260906131044 | 75 | 0 | 0.0 | 3.0 | 0.00 | 0.29 | 0.01 | 88 | 1014.6 |
| 20260906130544 | 74 | 0 | 0.0 | 3.0 | 0.00 | 0.29 | 0.01 | 88 | 1014.5 |
| 20260906130053 | 74 | 259 | 0.0 | 5.0 | 0.00 | 0.29 | 0.01 | 88 | 1014.3 |
| 20260906125545 | 74 | 128 | 1.0 | 5.0 | 0.00 | 0.29 | 0.01 | 88 | 1014.3 |
| 20260906125048 | 74 | 0 | 1.0 | 3.0 | 0.00 | 0.29 | 0.01 | 89 | 1014.2 |
| 20260906124607 | 74 | 0 | 1.0 | 3.0 | 0.00 | 0.29 | 0.01 | 90 | 1014.3 |
| 20260906124044 | 73 | 281 | 0.0 | 0.0 | 0.00 | 0.29 | 0.01 | 91 | 1014.4 |
| 20260906123549 | 73 | 0 | 0.0 | 5.0 | 0.00 | 0.29 | 0.01 | 91 | 1014.5 |
| 20260906123056 | 73 | 153 | 0.0 | 5.0 | 0.00 | 0.29 | 0.01 | 92 | 1014.5 |
| 20260906122544 | 73 | 0 | 0.0 | 5.0 | 0.00 | 0.29 | 0.01 | 93 | 1014.5 |
| 20260906122046 | 73 | 225 | 1.0 | 3.0 | 0.00 | 0.29 | 0.01 | 93 | 1014.4 |
| 20260906121554 | 72 | 171 | 0.0 | 3.0 | 0.00 | 0.29 | 0.01 | 94 | 1014.3 |
| 20260906121044 | 72 | 142 | 1.0 | 3.0 | 0.00 | 0.29 | 0.01 | 95 | 1014.3 |
| 20260906120544 | 72 | 129 | 0.0 | 3.0 | 0.00 | 0.29 | 0.01 | 96 | 1014.3 |
| 20260906120055 | 72 | 0 | 0.0 | 1.0 | 0.00 | 0.29 | 0.01 | 97 | 1014.1 |
| 20260906115545 | 71 | 0 | 0.0 | 2.0 | 0.00 | 0.29 | 0.01 | 97 | 1014.2 |
| 20260906115046 | 71 | 188 | 0.0 | 2.0 | 0.00 | 0.29 | 0.01 | 97 | 1014.1 |
| 20260906114609 | 71 | 0 | 0.0 | 0.0 | 0.00 | 0.29 | 0.01 | 97 | 1014.0 |
| 20260906114044 | 71 | 0 | 0.0 | 4.0 | 0.00 | 0.29 | 0.01 | 97 | 1014.0 |
| 20260906113546 | 71 | 0 | 0.0 | 4.0 | 0.00 | 0.29 | 0.01 | 97 | 1013.9 |
| 20260906113058 | 71 | 154 | 0.0 | 1.0 | 0.00 | 0.29 | 0.01 | 97 | 1013.7 |
| 20260906112544 | 71 | 0 | 0.0 | 0.0 | 0.00 | 0.29 | 0.01 | 97 | 1013.7 |
| 20260906112045 | 71 | 0 | 0.0 | 0.0 | 0.00 | 0.29 | 0.01 | 97 | 1013.6 |
| 20260906111558 | 71 | 0 | 0.0 | 0.0 | 0.00 | 0.29 | 0.01 | 97 | 1013.8 |
| 20260906111045 | 71 | 0 | 0.0 | 0.0 | 0.00 | 0.29 | 0.01 | 97 | 1013.8 |
| 20260906110546 | 71 | 0 | 0.0 | 0.0 | 0.00 | 0.29 | 0.01 | 97 | 1013.8 |
| 20260906110052 | 71 | 0 | 0.0 | 0.0 | 0.00 | 0.29 | 0.01 | 97 | 1013.7 |
| 20260906105546 | 71 | 0 | 0.0 | 0.0 | 0.00 | 0.29 | 0.01 | 97 | 1013.5 |
| 20260906105046 | 71 | 0 | 0.0 | 0.0 | 0.00 | 0.29 | 0.01 | 97 | 1013.4 |
| 20260906104629 | 71 | 0 | 0.0 | 0.0 | 0.00 | 0.29 | 0.01 | 97 | 1013.4 |
| 20260906104045 | 71 | 0 | 0.0 | 0.0 | 0.00 | 0.29 | 0.01 | 97 | 1013.4 |
| 20260906103547 | 71 | 0 | 0.0 | 0.0 | 0.00 | 0.29 | 0.01 | 97 | 1013.4 |
| 20260906103055 | 71 | 0 | 0.0 | 3.0 | 0.00 | 0.29 | 0.01 | 98 | 1013.5 |
| 20260906102546 | 71 | 0 | 0.0 | 3.0 | 0.00 | 0.29 | 0.01 | 98 | 1013.3 |
| 20260906102044 | 71 | 159 | 0.0 | 2.0 | 0.00 | 0.29 | 0.01 | 98 | 1013.2 |
| 20260906101553 | 71 | 256 | 0.0 | 0.0 | 0.00 | 0.29 | 0.01 | 97 | 1013.3 |
| 20260906101045 | 70 | 0 | 0.0 | 0.0 | 0.00 | 0.29 | 0.01 | 97 | 1013.2 |
| 20260906100545 | 70 | 0 | 0.0 | 0.0 | 0.00 | 0.29 | 0.01 | 97 | 1013.0 |
| 20260906100105 | 70 | 0 | 0.0 | 0.0 | 0.00 | 0.29 | 0.01 | 98 | 1013.0 |
| 20260906095545 | 71 | 0 | 0.0 | 0.0 | 0.00 | 0.29 | 0.01 | 98 | 1012.9 |
| 20260906095046 | 70 | 0 | 0.0 | 0.0 | 0.00 | 0.29 | 0.01 | 98 | 1012.9 |
| 20260906094558 | 70 | 0 | 0.0 | 1.0 | 0.00 | 0.29 | 0.01 | 98 | 1012.9 |
| 20260906094045 | 70 | 0 | 0.0 | 1.0 | 0.00 | 0.29 | 0.01 | 98 | 1012.9 |
| 20260906093546 | 70 | 0 | 0.0 | 4.0 | 0.00 | 0.29 | 0.01 | 98 | 1012.8 |
| 20260906093113 | 70 | 0 | 0.0 | 4.0 | 0.00 | 0.29 | 0.01 | 98 | 1012.8 |
| 20260906092545 | 70 | 0 | 0.0 | 5.0 | 0.00 | 0.29 | 0.01 | 98 | 1012.8 |
| 20260906092046 | 70 | 0 | 1.0 | 5.0 | 0.00 | 0.29 | 0.01 | 98 | 1012.7 |
| 20260906091606 | 69 | 196 | 0.0 | 1.0 | 0.00 | 0.29 | 0.01 | 98 | 1012.6 |
| 20260906091045 | 69 | 0 | 0.0 | 0.0 | 0.00 | 0.29 | 0.01 | 98 | 1012.5 |
| 20260906090545 | 69 | 0 | 0.0 | 0.0 | 0.00 | 0.29 | 0.01 | 97 | 1012.5 |
| 20260906085543 | 68 | 0 | 0.0 | 0.0 | 0.00 | 0.29 | 0.01 | 97 | 1012.3 |
| 20260906085050 | 68 | 0 | 0.0 | 0.0 | 0.00 | 0.29 | 0.01 | 97 | 1012.3 |
| 20260906084605 | 68 | 0 | 0.0 | 0.0 | 0.00 | 0.29 | 0.01 | 97 | 1012.1 |
| 20260906084045 | 68 | 0 | 0.0 | 0.0 | 0.01 | 0.29 | 0.01 | 97 | 1012.3 |
| 20260906083546 | 68 | 0 | 0.0 | 0.0 | 0.01 | 0.29 | 0.01 | 97 | 1012.3 |
| 20260906083104 | 68 | 0 | 0.0 | 0.0 | 0.01 | 0.29 | 0.01 | 97 | 1012.3 |
| 20260906082544 | 68 | 0 | 0.0 | 0.0 | 0.01 | 0.29 | 0.01 | 97 | 1012.1 |
| 20260906082045 | 68 | 0 | 0.0 | 0.0 | 0.01 | 0.29 | 0.01 | 97 | 1012.2 |
| 20260906081604 | 68 | 0 | 0.0 | 0.0 | 0.01 | 0.29 | 0.01 | 97 | 1012.2 |
| 20260906081045 | 68 | 0 | 0.0 | 0.0 | 0.01 | 0.29 | 0.01 | 97 | 1012.0 |
| 20260906080547 | 68 | 0 | 0.0 | 0.0 | 0.01 | 0.29 | 0.01 | 96 | 1011.9 |
| 20260906080109 | 68 | 0 | 0.0 | 0.0 | 0.01 | 0.29 | 0.01 | 97 | 1011.9 |
| 20260906075545 | 68 | 0 | 0.0 | 0.0 | 0.01 | 0.29 | 0.01 | 97 | 1011.8 |
| 20260906075045 | 68 | 0 | 0.0 | 0.0 | 0.01 | 0.29 | 0.01 | 97 | 1011.8 |
| 20260906074606 | 68 | 0 | 0.0 | 0.0 | 0.01 | 0.29 | 0.01 | 97 | 1011.9 |
| 20260906074044 | 68 | 0 | 0.0 | 0.0 | 0.00 | 0.28 | 0.00 | 96 | 1011.8 |
| 20260906073547 | 68 | 0 | 0.0 | 0.0 | 0.00 | 0.28 | 0.00 | 96 | 1011.9 |
| 20260906073105 | 68 | 0 | 0.0 | 0.0 | 0.00 | 0.28 | 0.00 | 96 | 1011.9 |
| 20260906072545 | 68 | 0 | 0.0 | 0.0 | 0.00 | 0.28 | 0.00 | 96 | 1012.0 |
| 20260906072044 | 68 | 0 | 0.0 | 0.0 | 0.00 | 0.28 | 0.00 | 96 | 1011.9 |
| 20260906071606 | 68 | 0 | 0.0 | 0.0 | 0.00 | 0.28 | 0.00 | 96 | 1012.1 |
| 20260906071045 | 68 | 0 | 0.0 | 0.0 | 0.00 | 0.28 | 0.00 | 96 | 1012.1 |
| 20260906070547 | 69 | 0 | 0.0 | 0.0 | 0.00 | 0.28 | 0.00 | 96 | 1012.2 |
| 20260906070110 | 68 | 0 | 0.0 | 0.0 | 0.00 | 0.28 | 0.00 | 96 | 1012.2 |
| 20260906065545 | 68 | 0 | 0.0 | 0.0 | 0.00 | 0.28 | 0.00 | 96 | 1012.3 |
| 20260906065045 | 69 | 0 | 0.0 | 0.0 | 0.00 | 0.28 | 0.00 | 96 | 1012.3 |
| 20260906064606 | 69 | 0 | 0.0 | 0.0 | 0.00 | 0.28 | 0.00 | 96 | 1012.3 |
| 20260906064044 | 69 | 0 | 0.0 | 0.0 | 0.00 | 0.28 | 0.00 | 96 | 1012.3 |
| 20260906063546 | 69 | 0 | 0.0 | 0.0 | 0.00 | 0.28 | 0.00 | 96 | 1012.3 |
| 20260906063110 | 69 | 0 | 0.0 | 0.0 | 0.00 | 0.28 | 0.00 | 96 | 1012.3 |
| 20260906062544 | 69 | 0 | 0.0 | 0.0 | 0.00 | 0.28 | 0.00 | 96 | 1012.3 |
| 20260906062044 | 69 | 0 | 0.0 | 0.0 | 0.00 | 0.28 | 0.00 | 96 | 1012.3 |
| 20260906061606 | 69 | 0 | 0.0 | 0.0 | 0.00 | 0.28 | 0.00 | 96 | 1012.4 |
| 20260906061045 | 69 | 0 | 0.0 | 0.0 | 0.00 | 0.28 | 0.00 | 96 | 1012.3 |
| 20260906060547 | 69 | 0 | 0.0 | 0.0 | 0.00 | 0.28 | 0.00 | 96 | 1012.3 |
| 20260906060105 | 69 | 0 | 0.0 | 0.0 | 0.00 | 0.28 | 0.00 | 96 | 1012.4 |
| 20260906055545 | 69 | 0 | 0.0 | 0.0 | 0.00 | 0.28 | 0.00 | 96 | 1012.5 |
| 20260906055045 | 69 | 0 | 0.0 | 0.0 | 0.00 | 0.28 | 0.00 | 96 | 1012.6 |
| 20260906054606 | 69 | 0 | 0.0 | 0.0 | 0.00 | 0.28 | 0.00 | 96 | 1012.4 |
| 20260906054046 | 69 | 0 | 0.0 | 0.0 | 0.00 | 0.28 | 0.00 | 96 | 1012.5 |
| 20260906053545 | 69 | 0 | 0.0 | 0.0 | 0.00 | 0.28 | 0.00 | 95 | 1012.5 |
| 20260906053056 | 69 | 0 | 0.0 | 0.0 | 0.00 | 0.28 | 0.00 | 95 | 1012.4 |
| 20260906052546 | 70 | 0 | 0.0 | 0.0 | 0.00 | 0.28 | 0.00 | 95 | 1012.5 |
| 20260906052046 | 70 | 0 | 0.0 | 0.0 | 0.00 | 0.28 | 0.00 | 96 | 1012.5 |
| 20260906051553 | 70 | 0 | 0.0 | 0.0 | 0.00 | 0.28 | 0.00 | 95 | 1012.6 |
| 20260906051047 | 70 | 0 | 0.0 | 0.0 | 0.00 | 0.28 | 0.00 | 95 | 1012.7 |
| 20260906050548 | 70 | 0 | 0.0 | 0.0 | 0.00 | 0.28 | 0.00 | 95 | 1012.6 |
| 20260906050123 | 70 | 0 | 0.0 | 0.0 | 0.00 | 0.28 | 0.00 | 95 | 1012.6 |
| 20260906045545 | 70 | 0 | 0.0 | 0.0 | 0.00 | 0.28 | 0.00 | 95 | 1012.8 |
| 20260906045045 | 70 | 0 | 0.0 | 0.0 | 0.00 | 0.28 | 0.00 | 95 | 1012.6 |
| 20260906044555 | 70 | 0 | 0.0 | 0.0 | 0.00 | 0.28 | 0.00 | 95 | 1012.7 |
| 20260906044045 | 70 | 0 | 0.0 | 0.0 | 0.00 | 0.28 | 0.00 | 95 | 1012.8 |
| 20260906043544 | 70 | 0 | 0.0 | 0.0 | 0.00 | 0.28 | 0.00 | 95 | 1012.9 |
| 20260906043056 | 70 | 0 | 0.0 | 0.0 | 0.00 | 0.28 | 0.00 | 95 | 1012.9 |
| 20260906042545 | 70 | 0 | 0.0 | 0.0 | 0.00 | 0.28 | 0.00 | 95 | 1013.0 |
| 20260906042046 | 70 | 0 | 0.0 | 0.0 | 0.00 | 0.28 | 0.00 | 95 | 1013.2 |
| 20260906041604 | 71 | 0 | 0.0 | 0.0 | 0.00 | 0.28 | 0.00 | 95 | 1013.1 |
| 20260906041046 | 71 | 0 | 0.0 | 0.0 | 0.00 | 0.28 | 0.00 | 95 | 1013.1 |
| 20260906040545 | 71 | 0 | 0.0 | 0.0 | 0.00 | 0.28 | 0.00 | 95 | 1013.0 |
| 20260906040128 | 71 | 0 | 0.0 | 3.0 | 0.00 | 0.28 | 0.00 | 95 | 1013.0 |
| 20260906035546 | 71 | 0 | 0.0 | 3.0 | 0.00 | 0.28 | 0.28 | 95 | 1013.1 |
| 20260906035046 | 71 | 0 | 0.0 | 4.0 | 0.00 | 0.28 | 0.28 | 96 | 1013.2 |
| 20260906034555 | 71 | 0 | 0.0 | 4.0 | 0.00 | 0.28 | 0.28 | 96 | 1013.2 |
| 20260906034046 | 71 | 0 | 1.0 | 4.0 | 0.00 | 0.28 | 0.28 | 96 | 1013.1 |
| 20260906033545 | 70 | 0 | 0.0 | 0.0 | 0.00 | 0.28 | 0.28 | 96 | 1013.0 |
| 20260906033105 | 70 | 0 | 0.0 | 0.0 | 0.00 | 0.28 | 0.28 | 96 | 1013.0 |
| 20260906032549 | 70 | 0 | 0.0 | 0.0 | 0.00 | 0.28 | 0.28 | 96 | 1012.9 |
| 20260906032045 | 70 | 0 | 0.0 | 0.0 | 0.00 | 0.28 | 0.28 | 96 | 1012.9 |
| 20260906031602 | 70 | 0 | 0.0 | 0.0 | 0.00 | 0.28 | 0.28 | 96 | 1012.9 |
| 20260906031045 | 70 | 0 | 0.0 | 0.0 | 0.00 | 0.28 | 0.28 | 96 | 1012.8 |
| 20260906030545 | 70 | 0 | 0.0 | 0.0 | 0.00 | 0.28 | 0.28 | 96 | 1012.9 |
| 20260906030059 | 70 | 0 | 0.0 | 0.0 | 0.00 | 0.28 | 0.28 | 96 | 1012.8 |
| 20260906025546 | 70 | 0 | 0.0 | 0.0 | 0.00 | 0.28 | 0.28 | 96 | 1012.7 |
| 20260906025046 | 70 | 0 | 0.0 | 0.0 | 0.00 | 0.28 | 0.28 | 96 | 1012.8 |
| 20260906024618 | 70 | 0 | 0.0 | 0.0 | 0.00 | 0.28 | 0.28 | 95 | 1012.8 |
| 20260906024046 | 70 | 0 | 0.0 | 0.0 | 0.00 | 0.28 | 0.28 | 95 | 1012.7 |
| 20260906023546 | 70 | 0 | 0.0 | 0.0 | 0.00 | 0.28 | 0.28 | 95 | 1012.6 |
| 20260906023104 | 70 | 0 | 0.0 | 0.0 | 0.00 | 0.28 | 0.28 | 95 | 1012.5 |
| 20260906022545 | 70 | 0 | 0.0 | 0.0 | 0.00 | 0.28 | 0.28 | 95 | 1012.7 |
| 20260906022045 | 70 | 0 | 0.0 | 0.0 | 0.00 | 0.28 | 0.28 | 95 | 1012.5 |
| 20260906021603 | 70 | 0 | 0.0 | 0.0 | 0.00 | 0.28 | 0.28 | 95 | 1012.4 |
| 20260906021045 | 70 | 0 | 0.0 | 0.0 | 0.00 | 0.28 | 0.28 | 95 | 1012.6 |
| 20260906020548 | 70 | 0 | 0.0 | 0.0 | 0.00 | 0.28 | 0.28 | 95 | 1012.7 |
| 20260906020105 | 70 | 0 | 0.0 | 0.0 | 0.00 | 0.28 | 0.28 | 95 | 1012.7 |
| 20260906015545 | 71 | 0 | 0.0 | 0.0 | 0.00 | 0.28 | 0.28 | 95 | 1012.7 |
| 20260906015046 | 71 | 0 | 0.0 | 0.0 | 0.00 | 0.28 | 0.28 | 94 | 1012.5 |
| 20260906014611 | 71 | 0 | 0.0 | 0.0 | 0.00 | 0.28 | 0.28 | 95 | 1012.5 |
| 20260906014045 | 71 | 0 | 0.0 | 0.0 | 0.00 | 0.28 | 0.28 | 94 | 1012.5 |
| 20260906013545 | 71 | 0 | 0.0 | 0.0 | 0.00 | 0.28 | 0.28 | 94 | 1012.5 |
| 20260906013105 | 71 | 0 | 0.0 | 0.0 | 0.00 | 0.28 | 0.28 | 94 | 1012.5 |
| 20260906012547 | 71 | 0 | 0.0 | 0.0 | 0.00 | 0.28 | 0.28 | 94 | 1012.4 |
| 20260906012044 | 71 | 0 | 0.0 | 0.0 | 0.00 | 0.28 | 0.28 | 94 | 1012.2 |
| 20260906011602 | 71 | 0 | 0.0 | 0.0 | 0.00 | 0.28 | 0.28 | 93 | 1012.1 |
| 20260906011045 | 71 | 0 | 0.0 | 0.0 | 0.00 | 0.28 | 0.28 | 93 | 1012.3 |
| 20260906010545 | 71 | 0 | 0.0 | 0.0 | 0.00 | 0.28 | 0.28 | 93 | 1012.3 |
| 20260906010054 | 71 | 0 | 0.0 | 0.0 | 0.00 | 0.28 | 0.28 | 93 | 1012.3 |
| 20260906005546 | 71 | 0 | 0.0 | 0.0 | 0.00 | 0.28 | 0.28 | 93 | 1012.3 |
| 20260906005045 | 71 | 0 | 0.0 | 0.0 | 0.00 | 0.28 | 0.28 | 93 | 1012.3 |
| 20260906004601 | 71 | 0 | 0.0 | 0.0 | 0.00 | 0.28 | 0.28 | 92 | 1012.2 |
| 20260906004045 | 71 | 0 | 0.0 | 0.0 | 0.00 | 0.28 | 0.28 | 92 | 1012.2 |
| 20260906003545 | 71 | 0 | 0.0 | 0.0 | 0.00 | 0.28 | 0.28 | 92 | 1012.0 |
| 20260906003105 | 72 | 0 | 0.0 | 0.0 | 0.00 | 0.28 | 0.28 | 92 | 1012.1 |
| 20260906002546 | 72 | 0 | 0.0 | 0.0 | 0.00 | 0.28 | 0.28 | 91 | 1012.1 |
| 20260906002047 | 72 | 0 | 0.0 | 0.0 | 0.00 | 0.28 | 0.28 | 91 | 1012.1 |
| 20260906001553 | 72 | 0 | 0.0 | 0.0 | 0.00 | 0.28 | 0.28 | 91 | 1012.0 |
| 20260906001046 | 73 | 0 | 0.0 | 0.0 | 0.00 | 0.28 | 0.28 | 91 | 1012.0 |
| 20260906000545 | 73 | 0 | 0.0 | 0.0 | 0.00 | 0.28 | 0.28 | 90 | 1011.9 |
| 20260905235549 | 73 | 0 | 0.0 | 0.0 | 0.00 | 0.28 | 0.28 | 90 | 1011.9 |
| 20260905235045 | 73 | 0 | 0.0 | 0.0 | 0.00 | 0.28 | 0.28 | 90 | 1011.7 |
| 20260905234612 | 74 | 0 | 0.0 | 0.0 | 0.00 | 0.28 | 0.28 | 89 | 1011.7 |
| 20260905234048 | 74 | 0 | 0.0 | 0.0 | 0.00 | 0.28 | 0.28 | 89 | 1011.5 |
| 20260905233546 | 74 | 0 | 0.0 | 1.0 | 0.00 | 0.28 | 0.28 | 87 | 1011.3 |
| 20260905233054 | 74 | 0 | 0.0 | 1.0 | 0.00 | 0.28 | 0.28 | 88 | 1011.5 |
| 20260905232545 | 75 | 0 | 0.0 | 1.0 | 0.00 | 0.28 | 0.28 | 87 | 1011.4 |
| 20260905232046 | 75 | 0 | 0.0 | 2.0 | 0.00 | 0.28 | 0.28 | 87 | 1011.4 |
| 20260905231557 | 75 | 0 | 0.0 | 2.0 | 0.00 | 0.28 | 0.28 | 86 | 1011.3 |
| 20260905231045 | 76 | 0 | 0.0 | 1.0 | 0.00 | 0.28 | 0.28 | 86 | 1011.3 |
| 20260905230545 | 76 | 0 | 0.0 | 2.0 | 0.00 | 0.28 | 0.28 | 85 | 1011.2 |
| 20260905230130 | 77 | 0 | 0.0 | 2.0 | 0.00 | 0.28 | 0.28 | 84 | 1011.2 |
| 20260905225547 | 77 | 0 | 0.0 | 1.0 | 0.00 | 0.28 | 0.28 | 83 | 1011.3 |